Location: B�rgermoos
(47.6500°N, 9.0667°E)
Time: 17:50:00
(UTC+00:00)

Vanguard 1 - Pass Details

Date: 03 August 2021
Orbit: 652 x 3831 km, 34.3° (Epoch: 17 September)

Event Time Altitude Azimuth Distance (km) Brightness Sun altitude
Rises 09:15:22 0° 215° (SW) 2,961 12.6 49.1°
Reaches altitude 10° 09:18:32 10° 189° (S) 2,153 12.2 49.5°
Maximum altitude 09:21:05 14° 156° (SSE) 2,029 12.6 49.9°
Drops below altitude 10° 09:24:01 10° 124° (SE) 2,560 13.1 50.3°
Sets 09:28:28 0° 102° (ESE) 3,988 13.7 50.9°
